Location: Unspecified
(49.2170°N, 0.0000°E)
Time: 17:40:02
(UTC+00:00)

A-11 Canister half - Pass Details

Date: 21 January 2021
Orbit: 1516 x 1684 km, 47.2° (Epoch: 05 March)

Event Time Altitude Azimuth Distance (km) Brightness Sun altitude
Exits shadow 04:56:59 18° 211° (SSW) 3,110 10.3 -26.9°
Drops below altitude 10° 05:00:50 10° 187° (S) 3,735 10.9 -26.3°
Sets 05:04:59 0° 172° (S) 4,743 11.7 -25.6°
